User: anonymous   Login
Location: Bangkok
(13.7500°N, 100.5170°E)
Time: 06:30:36
(UTC+07:00)
Language:

Cosmos 1802 Rocket - Orbit

View from above orbital plane
View from above orbital plane
View from above satellite
View from above satellite

Ground track
Ground track

The orbit data is extracted from the following two-line orbital elements,

1 17160U 86093B   16241.75943262 +.00000088 +00000-0 +77400-4 0  9991
2 17160 082.9258 281.2371 0037738 242.6042 255.2676 13.74583440492426
Epoch (UTC): 28 August 2016 18:13:34
Eccentricity: 0.0037738
inclination: 82.9258°
perigee height: 955 km
apogee height: 1011 km
right ascension of ascending node: 281.2371°
argument of perigee: 242.6042°
revolutions per day: 13.74583440
mean anomaly at epoch: 255.2676°
orbit number at epoch: 49242

The dashed part of the orbit path shows where the satellite is in the earth's shadow,  

DLR